Content
SEND FEEDBACK

Daily
Averages
Monthly
Summary
Canada

WATERLOO WELLING, ONTARIO


Home > North America > Canada > Ontario
Elevation: 1031 feet     Latitude: 43 27N     Longitude: 080 23W

WEATHER
 
SELECT A DAY
Number of Records: 264,488;   Date Range: 1/1/95 - 10/21/14
 
SHARE

PRINT THIS DATA

[ ← Previous Day ]
WEATHER ALMANAC - MARCH 19, 2013
[ Next Day → ]
[ °C ]   °F
Weather ElementAverageHighLow
Temperature27.6 °F33.8 °F (1:25 am)21.2 °F (8:45 pm)
Dewpoint23.6 °F32 °F (12:44 am)15.8 °F (12:37 pm)
Humidity85.3 %100 % (12:44 am)53 % (2:00 pm)
Barometer29.70 in29.83 in (9:33 pm)29.59 in (12:05 am)
Wind Speed15.3 mph24.2 mph (10:32 am)
Wind Gust29.9 mph (2:00 pm)
Weather ElementAverage
Visibility5.2 mi
Wind DirectionWSW (231.8 °)

Weather ElementTotal
Precipitation---
Heating Degree Days37.5 (Base 65)
Averaged from 185 records on March 19, 2013
WEATHER CONDITIONS BREAKOUT
WIND DIRECTION BREAKOUT
WEATHER BY HOUR - MARCH 19, 2013
[ °C ]   °F
Local TimeTemperatureDewpointHumidityBarometerVisibilityWind DirectionWind SpeedGust SpeedPrecipitationEventsConditions
12:05 AM32.0 °F30.2 °F93 %29.59 in3.0 miSE (130°)13.8 mph21.9 mphRain-SnowLight Snow
12:09 AM32.0 °F30.2 °F93 %29.59 in2.5 miSE (130°)15.0 mphRain-SnowLight Snow
12:10 AM32.0 °F30.2 °F93 %29.59 in2.5 miSE (130°)12.7 mph20.7 mphSnowLight Snow
12:22 AM32.0 °F30.2 °F93 %29.60 in2.5 miSE (140°)12.7 mph18.4 mphRain-SnowLight Snow
12:23 AM32.0 °F30.2 °F93 %29.59 in2.5 miSE (130°)12.7 mph18.4 mphRain-SnowLight Freezing Rain
12:26 AM32.0 °F30.2 °F93 %29.60 in2.5 miSE (130°)15.0 mphRainLight Freezing Rain
12:44 AM32.0 °F32.0 °F100 %29.59 in1.8 miSE (140°)16.1 mphRainLight Freezing Rain
12:53 AM32.0 °F32.0 °F100 %29.59 in2.0 miSSE (160°)12.7 mph18.4 mphRainLight Freezing Rain
12:56 AM32.0 °F32.0 °F100 %29.59 in2.5 miSE (140°)12.7 mph18.4 mphOvercast
12:58 AM32.0 °F32.0 °F100 %29.59 in2.5 miSE (140°)11.5 mphOvercast
12:59 AM32.0 °F32.0 °F100 %29.59 in2.5 miSSE (150°)12.7 mphRainLight Rain
1:00 AM32.0 °F32.0 °F100 %29.59 in2.5 miSSE (150°)13.8 mphRainLight Rain
1:16 AM32.0 °F32.0 °F100 %29.59 in2.5 miSouth (170°)10.4 mphRain-SnowLight Rain
1:25 AM33.8 °F32.0 °F93 %29.59 in2.5 miSouth (180°)11.5 mphRainLight Rain
1:36 AM33.8 °F32.0 °F93 %29.60 in2.5 miSouth (190°)11.5 mph17.3 mphRain-SnowLight Snow
1:39 AM33.8 °F32.0 °F93 %29.59 in2.5 miSouth (190°)11.5 mph17.3 mphRain-SnowLight Rain
1:41 AM33.8 °F32.0 °F93 %29.59 in2.5 miSouth (190°)11.5 mphSnowLight Snow
1:48 AM33.8 °F32.0 °F93 %29.59 in2.5 miSouth (190°)12.7 mphSnowLight Snow
1:52 AM33.8 °F32.0 °F93 %29.59 in2.5 miSSW (200°)13.8 mphOvercast
1:53 AM33.8 °F32.0 °F93 %29.59 in2.5 miSSW (200°)11.5 mph18.4 mphSnowLight Snow
1:54 AM33.8 °F32.0 °F93 %29.59 in2.5 miSouth (190°)11.5 mph18.4 mphOvercast
1:56 AM33.8 °F32.0 °F93 %29.59 in2.0 miSSW (200°)11.5 mph18.4 mphSnowLight Snow
1:57 AM33.8 °F32.0 °F93 %29.59 in2.0 miSSW (200°)11.5 mph18.4 mphOvercast
1:59 AM33.8 °F32.0 °F93 %29.59 in2.0 miSSW (200°)10.4 mph18.4 mphOvercast
2:00 AM33.0 °F32.0 °F95 %29.59 in2.0 miSSW (200°)11.5 mphRainLight Rain
2:00 AM33.8 °F32.0 °F93 %29.59 in2.0 miSSW (210°)10.4 mph18.4 mphOvercast
2:03 AM33.8 °F32.0 °F93 %29.59 in2.0 miSSW (200°)11.5 mphRainLight Rain
2:05 AM33.8 °F32.0 °F93 %29.59 in2.0 miSSW (200°)11.5 mphOvercast
2:12 AM33.8 °F32.0 °F93 %29.59 inSSW (200°)11.5 mphRainLight Rain
2:14 AM33.8 °F32.0 °F93 %29.59 in2.0 miSSW (200°)11.5 mphRainLight Rain
2:15 AM32.0 °F32.0 °F100 %29.59 in2.0 miSSW (200°)11.5 mphRain-SnowLight Snow
2:17 AM32.0 °F32.0 °F100 %29.59 in2.0 miSSW (210°)11.5 mphSnowLight Snow
2:19 AM32.0 °F32.0 °F100 %29.59 in2.0 miSSW (200°)11.5 mphRain-SnowLight Rain
2:20 AM32.0 °F32.0 °F100 %29.59 in2.0 miSSW (210°)11.5 mphSnowLight Snow
2:48 AM33.8 °F32.0 °F93 %29.60 in3.0 miSW (230°)15.0 mph23.0 mphSnowLight Snow
2:56 AM33.8 °F32.0 °F93 %29.60 in5.0 miWSW (240°)12.7 mph19.6 mphSnowLight Snow
2:59 AM33.8 °F32.0 °F93 %29.60 in5.0 miSW (230°)11.5 mph17.3 mphRain-SnowLight Snow
3:00 AM33.8 °F32.0 °F93 %29.60 in5.0 miSW (230°)13.8 mphOvercast
3:01 AM33.8 °F32.0 °F93 %29.60 in5.0 miWSW (240°)12.7 mphRainLight Rain
3:02 AM33.8 °F32.0 °F93 %29.60 in6.0 miWSW (240°)12.7 mphRainLight Rain
3:04 AM33.8 °F32.0 °F93 %29.60 in6.0 miSW (230°)13.8 mphRainLight Rain
3:05 AM33.8 °F32.0 °F93 %29.60 in7.0 miSW (230°)12.7 mphOvercast
3:06 AM33.8 °F32.0 °F93 %29.60 in7.0 miSW (230°)12.7 mphRainLight Rain
3:07 AM33.8 °F32.0 °F93 %29.60 in7.0 miSW (230°)12.7 mphOvercast
3:08 AM33.8 °F32.0 °F93 %29.60 in7.0 miSW (230°)12.7 mphRainLight Rain
3:10 AM33.8 °F32.0 °F93 %29.60 in7.0 miSW (230°)11.5 mphRainLight Rain
3:12 AM33.8 °F32.0 °F93 %29.60 in7.0 miSW (230°)10.4 mph17.3 mphOvercast
3:13 AM33.8 °F32.0 °F93 %29.60 in7.0 miSW (230°)10.4 mph17.3 mphOvercast
3:16 AM33.8 °F32.0 °F93 %29.60 inSW (230°)11.5 mphOvercast
3:17 AM33.8 °F32.0 °F93 %29.60 inSW (230°)12.7 mphRainLight Rain
3:19 AM33.8 °F32.0 °F93 %29.60 inWSW (240°)12.7 mphOvercast
3:28 AM33.8 °F32.0 °F93 %29.60 inWSW (240°)18.4 mphRainLight Rain
3:41 AM33.8 °F32.0 °F93 %29.60 in9.0 miSW (230°)17.3 mph24.2 mphOvercast
4:00 AM33.8 °F30.2 °F87 %29.61 in9.0 miWSW (240°)16.1 mph25.3 mphOvercast
5:00 AM33.8 °F30.2 °F87 %29.61 in9.0 miSW (230°)13.8 mph21.9 mphOvercast
5:56 AM33.8 °F30.2 °F87 %29.62 in9.0 miSW (220°)15.0 mph20.7 mphOvercast
6:00 AM33.8 °F30.2 °F87 %29.62 in9.0 miSW (220°)11.5 mph20.7 mphOvercast
6:57 AM33.8 °F30.2 °F87 %29.63 in9.0 miSSW (200°)12.7 mphOvercast
7:00 AM33.8 °F28.4 °F81 %29.63 in9.0 miSSW (210°)15.0 mphOvercast
7:05 AM33.8 °F28.4 °F81 %29.63 in9.0 miSSW (200°)13.8 mph20.7 mphOvercast
7:42 AM32.0 °F26.6 °F80 %29.63 in9.0 miSSW (210°)11.5 mph21.9 mphOvercast
7:56 AM32.0 °F26.6 °F80 %29.63 in9.0 miSW (220°)15.0 mph26.5 mphOvercast
8:00 AM32.0 °F26.0 °F72 %29.64 in10.0 miSSW (210°)16.1 mphN Precipitation
8:00 AM32.0 °F26.6 °F80 %29.63 in9.0 miSSW (210°)16.1 mph23.0 mphOvercast
8:01 AM32.0 °F26.6 °F80 %29.63 in9.0 miSSW (210°)17.3 mph23.0 mphSnowLight Snow
8:05 AM32.0 °F26.6 °F80 %29.63 in9.0 miSSW (210°)17.3 mph25.3 mphSnowLight Snow
8:34 AM30.2 °F26.6 °F86 %29.64 in5.0 miSW (220°)18.4 mph27.6 mphSnowLight Snow
8:58 AM30.2 °F28.4 °F93 %29.64 in2.5 miSW (220°)18.4 mph25.3 mphSnowLight Snow
9:00 AM30.2 °F28.4 °F93 %29.64 in2.5 miSW (220°)16.1 mph25.3 mphSnowLight Snow
9:24 AM30.2 °F26.6 °F86 %29.65 in2.5 miWSW (240°)15.0 mphRain-SnowLight Snow
9:25 AM30.2 °F26.6 °F86 %29.65 in2.5 miWSW (240°)16.1 mphSnowLight Snow
9:28 AM30.2 °F26.6 °F86 %29.65 in2.5 miWSW (240°)12.7 mph21.9 mphSnowLight Snow
9:40 AM28.4 °F26.6 °F93 %29.66 inWest (260°)16.1 mph28.8 mphSnowLight Snow
10:00 AM26.6 °F24.8 °F93 %29.66 in2.2 miWest (260°)12.7 mph18.4 mphSnowLight Snow
10:04 AM26.6 °F24.8 °F93 %29.66 in1.8 miWest (260°)18.4 mph25.3 mphSnowLight Snow
10:15 AM26.6 °F24.8 °F93 %29.67 in1.2 miWSW (250°)11.5 mph20.7 mphOvercast
10:16 AM26.6 °F24.8 °F93 %29.67 in1.2 miWSW (250°)11.5 mph20.7 mphSnowLight Snow
10:32 AM26.6 °F23.0 °F86 %29.68 in1.0 miWSW (250°)24.2 mphSnowLight Snow
11:00 AM24.8 °F21.2 °F86 %29.68 in1.5 miWest (260°)15.0 mph21.9 mphSnowLight Snow
11:16 AM24.8 °F21.2 °F86 %29.69 in2.0 miWSW (250°)11.5 mph18.4 mphSnowLight Snow
11:29 AM24.8 °F21.2 °F86 %29.69 in3.0 miWSW (250°)18.4 mphSnowLight Snow
11:36 AM24.8 °F19.4 °F80 %29.68 in5.0 miWSW (250°)19.6 mph27.6 mphSnowLight Snow
11:39 AM24.8 °F19.4 °F80 %29.68 in7.0 miWSW (250°)20.7 mph27.6 mphSnowLight Snow
12:00 PM26.6 °F19.4 °F74 %29.68 in9.0 miWSW (240°)18.4 mph27.6 mphSnowLight Snow
12:01 PM26.6 °F19.4 °F74 %29.68 in9.0 miWSW (250°)18.4 mph27.6 mphOvercast
12:31 PM26.6 °F17.6 °F69 %29.68 in9.0 miWest (260°)21.9 mphSnowLight Snow
12:37 PM26.6 °F15.8 °F64 %29.69 in9.0 miWSW (250°)20.7 mph28.8 mphOvercast
12:51 PM26.6 °F17.6 °F69 %29.69 in9.0 miWSW (250°)20.7 mphSnowLight Snow
1:00 PM26.6 °F19.4 °F74 %29.70 in9.0 miWSW (250°)23.0 mph28.8 mphSnowLight Snow
1:03 PM26.6 °F17.6 °F69 %29.70 in9.0 miWSW (250°)17.3 mph28.8 mphOvercast
1:16 PM26.6 °F17.6 °F69 %29.70 in7.0 miWest (260°)19.6 mph26.5 mphSnowLight Snow
1:17 PM26.6 °F19.4 °F74 %29.70 in5.0 miWest (260°)20.7 mphSnowLight Snow
1:37 PM24.8 °F21.2 °F86 %29.71 in3.0 miWSW (240°)13.8 mph23.0 mphSnowLight Snow
1:43 PM24.8 °F19.4 °F80 %29.71 in3.0 miWest (260°)16.1 mph25.3 mphSnowLight Snow
1:46 PM24.8 °F19.4 °F80 %29.71 in7.0 miWSW (250°)17.3 mph25.3 mphSnowLight Snow
2:00 PM26.0 °F16.0 °F53 %29.71 in10.0 miWest (260°)20.7 mphSnowLight Snow
2:00 PM26.6 °F15.8 °F64 %29.71 in9.0 miWest (260°)18.4 mph29.9 mphSnowLight Snow
2:03 PM26.6 °F15.8 °F64 %29.71 in9.0 miWest (260°)21.9 mph29.9 mphOvercast
2:05 PM26.6 °F17.6 °F69 %29.72 in9.0 miWSW (250°)18.4 mph29.9 mphSnowLight Snow
2:06 PM26.6 °F17.6 °F69 %29.72 in9.0 miWSW (250°)19.6 mph26.5 mphOvercast
2:07 PM26.6 °F17.6 °F69 %29.72 in9.0 miWSW (240°)19.6 mph26.5 mphSnowLight Snow
2:22 PM24.8 °F19.4 °F80 %29.72 in4.0 miSW (230°)13.8 mph23.0 mphSnowLight Snow
2:28 PM24.8 °F19.4 °F80 %29.72 in2.0 miWSW (240°)20.7 mphSnowLight Snow
2:31 PM24.8 °F19.4 °F80 %29.73 in1.8 miWSW (240°)15.0 mph25.3 mphSnowLight Snow
2:36 PM24.8 °F19.4 °F80 %29.73 in2.0 miWest (260°)19.6 mphSnowLight Snow
2:52 PM24.8 °F19.4 °F80 %29.73 in3.0 miWest (260°)13.8 mph23.0 mphSnowLight Snow
2:56 PM24.8 °F17.6 °F74 %29.73 in6.0 miWest (260°)16.1 mphSnowLight Snow
3:00 PM24.8 °F19.4 °F80 %29.73 in9.0 miWSW (240°)16.1 mphSnowLight Snow
3:06 PM24.8 °F19.4 °F80 %29.73 in5.0 miWSW (240°)16.1 mph24.2 mphSnowLight Snow
3:12 PM24.8 °F19.4 °F80 %29.73 in2.5 miWSW (250°)16.1 mph23.0 mphSnowLight Snow
3:16 PM24.8 °F21.2 °F86 %29.73 in1.8 miWSW (250°)16.1 mph23.0 mphSnowLight Snow
3:27 PM24.8 °F19.4 °F80 %29.74 in1.8 miWSW (250°)17.3 mphSnowLight Snow
3:31 PM24.8 °F19.4 °F80 %29.74 in2.0 miWSW (240°)15.0 mph23.0 mphSnowLight Snow
3:34 PM24.8 °F19.4 °F80 %29.74 in3.0 miWSW (250°)16.1 mph23.0 mphSnowLight Snow
3:42 PM24.8 °F19.4 °F80 %29.74 in3.0 miWSW (250°)16.1 mph23.0 mphOvercast
3:45 PM24.8 °F19.4 °F80 %29.74 in3.0 miWSW (250°)16.1 mph21.9 mphSnowLight Snow
3:49 PM24.8 °F21.2 °F86 %29.75 in2.5 miWSW (240°)11.5 mph21.9 mphSnowLight Snow
4:00 PM24.8 °F19.4 °F80 %29.75 in3.0 miWSW (250°)15.0 mphSnowLight Snow
4:03 PM24.8 °F19.4 °F80 %29.75 in6.0 miWSW (250°)13.8 mphSnowLight Snow
4:08 PM24.8 °F19.4 °F80 %29.75 in5.0 miWSW (240°)15.0 mph20.7 mphSnowLight Snow
4:26 PM24.8 °F19.4 °F80 %29.75 in5.0 miWSW (240°)18.4 mph26.5 mphSnowLight Snow
4:28 PM24.8 °F19.4 °F80 %29.75 in6.0 miWSW (250°)19.6 mph25.3 mphSnowLight Snow
4:32 PM24.8 °F19.4 °F80 %29.75 in7.0 miSW (230°)13.8 mph25.3 mphSnowLight Snow
4:33 PM24.8 °F19.4 °F80 %29.75 in8.0 miSW (220°)12.7 mph25.3 mphSnowLight Snow
4:37 PM24.8 °F19.4 °F80 %29.75 in8.0 miSW (220°)13.8 mph24.2 mphSnowLight Snow
4:59 PM24.8 °F19.4 °F80 %29.76 in8.0 miWSW (240°)19.6 mphSnowLight Snow
5:00 PM24.8 °F17.6 °F74 %29.76 in9.0 miWSW (240°)19.6 mphOvercast
5:01 PM24.8 °F17.6 °F74 %29.76 in9.0 miWSW (240°)17.3 mph24.2 mphSnowLight Snow
5:05 PM24.8 °F19.4 °F80 %29.77 in6.0 miWSW (240°)19.6 mphSnowLight Snow
5:07 PM24.8 °F19.4 °F80 %29.77 in5.0 miWSW (250°)17.3 mph24.2 mphSnowLight Snow
5:08 PM24.8 °F19.4 °F80 %29.77 in4.0 miWest (260°)18.4 mph24.2 mphSnowLight Snow
5:11 PM24.8 °F19.4 °F80 %29.77 in2.5 miWSW (250°)19.6 mphSnowLight Snow
5:13 PM24.8 °F19.4 °F80 %29.78 in1.8 miWSW (250°)16.1 mph24.2 mphSnowLight Snow
5:20 PM24.8 °F19.4 °F80 %29.78 in2.0 miWSW (250°)17.3 mph23.0 mphSnowLight Snow
5:22 PM24.8 °F19.4 °F80 %29.78 in3.0 miWest (260°)18.4 mph24.2 mphSnowLight Snow
5:32 PM24.8 °F19.4 °F80 %29.78 in6.0 miWSW (250°)12.7 mph21.9 mphSnowLight Snow
5:35 PM24.8 °F19.4 °F80 %29.78 in7.0 miWSW (250°)15.0 mph21.9 mphSnowLight Snow
5:43 PM24.8 °F17.6 °F74 %29.78 in9.0 miWSW (250°)17.3 mph25.3 mphOvercast
5:46 PM24.8 °F17.6 °F74 %29.78 in9.0 miWSW (250°)13.8 mph25.3 mphOvercast
5:51 PM24.8 °F19.4 °F80 %29.78 in9.0 miWSW (250°)15.0 mph21.9 mphOvercast
5:53 PM24.8 °F19.4 °F80 %29.78 in9.0 miWSW (240°)12.7 mph20.7 mphOvercast
5:55 PM24.8 °F19.4 °F80 %29.78 in8.0 miSW (230°)17.3 mphSnowLight Snow
6:00 PM24.8 °F19.4 °F80 %29.78 in5.0 miWSW (240°)12.7 mph20.7 mphSnowLight Snow
6:09 PM24.8 °F21.2 °F86 %29.79 in2.5 miWSW (250°)12.7 mphSnowLight Snow
6:11 PM24.8 °F21.2 °F86 %29.79 in1.8 miWSW (250°)15.0 mph20.7 mphSnowLight Snow
6:27 PM24.8 °F21.2 °F86 %29.79 in2.0 miSW (230°)11.5 mph18.4 mphSnowLight Snow
6:38 PM23.0 °F21.2 °F93 %29.79 in1.8 miWSW (240°)15.0 mph21.9 mphSnowLight Snow
6:44 PM23.0 °F21.2 °F93 %29.79 in1.2 miSW (230°)16.1 mphOvercast
6:45 PM23.0 °F21.2 °F93 %29.79 in1.2 miWSW (240°)18.4 mphSnowLight Snow
7:00 PM23.0 °F21.2 °F93 %29.80 in1.0 miWest (260°)13.8 mph26.5 mphSnowLight Snow
7:08 PM23.0 °F21.2 °F93 %29.80 in1.5 miWest (260°)13.8 mphSnowLight Snow
7:11 PM23.0 °F19.4 °F86 %29.80 in2.0 miWSW (250°)20.7 mphSnowLight Snow
7:14 PM23.0 °F19.4 °F86 %29.80 in3.0 miWest (260°)17.3 mph24.2 mphSnowLight Snow
7:15 PM23.0 °F19.4 °F86 %29.80 in5.0 miWest (260°)18.4 mph24.2 mphOvercast
7:16 PM23.0 °F19.4 °F86 %29.80 in7.0 miWest (260°)17.3 mph24.2 mphSnowLight Snow
7:47 PM23.0 °F17.6 °F80 %29.81 in9.0 miWSW (250°)19.6 mphOvercast
7:49 PM23.0 °F17.6 °F80 %29.81 in9.0 miWest (260°)15.0 mph23.0 mphSnowLight Snow
8:00 PM23.0 °F17.6 °F80 %29.81 in9.0 miWest (260°)15.0 mph23.0 mphSnowLight Snow
8:00 PM22.0 °F17.0 °F74 %29.82 in10.0 miWest (270°)15.0 mphSnowLight Snow
8:09 PM23.0 °F17.6 °F80 %29.81 in9.0 miWest (260°)15.0 mphMostly Cloudy
8:21 PM23.0 °F17.6 °F80 %29.81 in9.0 miWest (260°)15.0 mphSnowLight Snow
8:28 PM23.0 °F17.6 °F80 %29.81 in9.0 miWest (270°)19.6 mph25.3 mphSnowLight Snow
8:33 PM23.0 °F17.6 °F80 %29.82 in9.0 miWSW (250°)15.0 mph25.3 mphSnowLight Snow
8:35 PM23.0 °F17.6 °F80 %29.82 in9.0 miWest (260°)11.5 mph25.3 mphOvercast
8:45 PM21.2 °F17.6 °F86 %29.82 in9.0 miWSW (250°)13.8 mph21.9 mphMostly Cloudy
8:49 PM21.2 °F17.6 °F86 %29.82 in9.0 miWSW (250°)17.3 mph24.2 mphMostly Cloudy
8:51 PM21.2 °F17.6 °F86 %29.82 in9.0 miWSW (250°)18.4 mph24.2 mphMostly Cloudy
8:59 PM21.2 °F17.6 °F86 %29.82 in7.0 miWSW (250°)17.3 mph23.0 mphSnowLight Snow
9:00 PM21.2 °F17.6 °F86 %29.82 in7.0 miWSW (250°)15.0 mph23.0 mphSnowLight Snow
9:09 PM21.2 °F17.6 °F86 %29.82 in7.0 miWSW (250°)15.0 mph23.0 mphMostly Cloudy
9:10 PM21.2 °F17.6 °F86 %29.82 in7.0 miWSW (250°)15.0 mph23.0 mphSnowLight Snow
9:15 PM21.2 °F17.6 °F86 %29.82 in6.0 miWSW (250°)19.6 mphOvercast
9:16 PM21.2 °F17.6 °F86 %29.82 in6.0 miWest (260°)18.4 mphSnowLight Snow
9:17 PM21.2 °F17.6 °F86 %29.82 in5.0 miWest (260°)15.0 mph24.2 mphSnowLight Snow
9:33 PM21.2 °F17.6 °F86 %29.83 in4.0 miWSW (250°)10.4 mph20.7 mphSnowLight Snow
10:00 PM21.2 °F17.6 °F86 %29.83 in3.0 miWSW (240°)13.8 mphSnowLight Snow
10:49 PM21.2 °F17.6 °F86 %29.83 in5.0 miWest (260°)15.0 mphOvercast
10:50 PM21.2 °F17.6 °F86 %29.83 inWest (260°)16.1 mphSnowLight Snow
10:51 PM21.2 °F17.6 °F86 %29.83 in6.0 miWest (260°)15.0 mphOvercast
10:52 PM21.2 °F17.6 °F86 %29.83 in6.0 miWSW (250°)16.1 mphSnowLight Snow
11:00 PM21.2 °F17.6 °F86 %29.83 in9.0 miWest (260°)16.1 mph24.2 mphSnowLight Snow
11:12 PM21.2 °F17.6 °F86 %29.83 in6.0 miWest (260°)19.6 mph25.3 mphOvercast
11:15 PM21.2 °F17.6 °F86 %29.83 inWest (270°)21.9 mphSnowLight Snow
11:16 PM21.2 °F17.6 °F86 %29.83 inWest (260°)19.6 mph26.5 mphSnowLight Snow
11:45 PM21.2 °F17.6 °F86 %29.83 in9.0 miWest (260°)16.1 mphSnowLight Snow
Hourly data recorded from CYKF, located miles away from Waterloo Welling, Ontario







STORIES FROM OUR PARTNERS